Year,Month,Day,Hour,Minute,Value (Times are PST for temperature in C)
2014,07,15,00,00,23.10
2014,07,15,00,01,23.10
2014,07,15,00,02,23.00
2014,07,15,00,03,23.10
2014,07,15,00,04,23.10
2014,07,15,00,05,23.00
2014,07,15,00,06,23.00
2014,07,15,00,07,23.00
2014,07,15,00,08,22.90
2014,07,15,00,09,22.90
2014,07,15,00,10,22.90
2014,07,15,00,11,22.80
2014,07,15,00,12,22.80
2014,07,15,00,13,22.80
2014,07,15,00,14,22.80
2014,07,15,00,15,22.70
2014,07,15,00,16,22.70
2014,07,15,00,17,22.70
2014,07,15,00,18,22.70
2014,07,15,00,19,22.70
2014,07,15,00,20,22.70
2014,07,15,00,21,22.70
2014,07,15,00,22,22.70
2014,07,15,00,23,22.60
2014,07,15,00,24,22.50
2014,07,15,00,25,22.50
2014,07,15,00,26,22.40
2014,07,15,00,27,22.40
2014,07,15,00,28,22.40
2014,07,15,00,29,22.30
2014,07,15,00,30,22.30
2014,07,15,00,31,22.20
2014,07,15,00,32,22.20
2014,07,15,00,33,22.20
2014,07,15,00,34,22.10
2014,07,15,00,35,22.00
2014,07,15,00,36,21.90
2014,07,15,00,37,21.80
2014,07,15,00,38,21.80
2014,07,15,00,39,21.80
2014,07,15,00,40,21.80
2014,07,15,00,41,21.80
2014,07,15,00,42,21.70
2014,07,15,00,43,21.60
2014,07,15,00,44,21.50
2014,07,15,00,45,21.50
2014,07,15,00,46,21.50
2014,07,15,00,47,21.50
2014,07,15,00,48,21.50
2014,07,15,00,49,21.50
2014,07,15,00,50,21.60
2014,07,15,00,51,21.60
2014,07,15,00,52,21.60
2014,07,15,00,53,21.60
2014,07,15,00,54,21.60
2014,07,15,00,55,21.70
2014,07,15,00,56,21.70
2014,07,15,00,57,21.70
2014,07,15,00,58,21.70
2014,07,15,00,59,21.70
2014,07,15,01,00,21.80
2014,07,15,01,01,21.80
2014,07,15,01,02,21.80
2014,07,15,01,03,21.90
2014,07,15,01,04,21.90
2014,07,15,01,05,22.00
2014,07,15,01,06,22.10
2014,07,15,01,07,22.10
2014,07,15,01,08,22.10
2014,07,15,01,09,22.20
2014,07,15,01,10,22.20
2014,07,15,01,11,22.20
2014,07,15,01,12,22.20
2014,07,15,01,13,22.20
2014,07,15,01,14,22.20
2014,07,15,01,15,22.20
2014,07,15,01,16,22.20
2014,07,15,01,17,22.20
2014,07,15,01,18,22.20
2014,07,15,01,19,22.20
2014,07,15,01,20,22.30
2014,07,15,01,21,22.30
2014,07,15,01,22,22.30
2014,07,15,01,23,22.30
2014,07,15,01,24,22.30
2014,07,15,01,25,22.30
2014,07,15,01,26,22.40
2014,07,15,01,27,22.40
2014,07,15,01,28,22.40
2014,07,15,01,29,22.40
2014,07,15,01,30,22.40
2014,07,15,01,31,22.30
2014,07,15,01,32,22.30
2014,07,15,01,33,22.20
2014,07,15,01,34,22.10
2014,07,15,01,35,22.10
2014,07,15,01,36,22.10
2014,07,15,01,37,22.10
2014,07,15,01,38,22.10
2014,07,15,01,39,22.10
2014,07,15,01,40,22.10
2014,07,15,01,41,22.10
2014,07,15,01,42,22.10
2014,07,15,01,43,22.10
2014,07,15,01,44,22.20
2014,07,15,01,45,22.30
2014,07,15,01,46,22.30
2014,07,15,01,47,22.30
2014,07,15,01,48,22.40
2014,07,15,01,49,22.50
2014,07,15,01,50,22.60
2014,07,15,01,51,22.60
2014,07,15,01,52,22.60
2014,07,15,01,53,22.70
2014,07,15,01,54,22.60
2014,07,15,01,55,22.60
2014,07,15,01,56,22.50
2014,07,15,01,57,22.40
2014,07,15,01,58,22.30
2014,07,15,01,59,22.20
2014,07,15,02,00,22.10
2014,07,15,02,01,22.00
2014,07,15,02,02,21.90
2014,07,15,02,03,21.80
2014,07,15,02,04,21.80
2014,07,15,02,05,21.70
2014,07,15,02,06,21.70
2014,07,15,02,07,21.60
2014,07,15,02,08,21.50
2014,07,15,02,09,21.30
2014,07,15,02,10,21.20
2014,07,15,02,11,21.00
2014,07,15,02,12,20.80
2014,07,15,02,13,20.80
2014,07,15,02,14,20.70
2014,07,15,02,15,20.70
2014,07,15,02,16,20.60
2014,07,15,02,17,20.50
2014,07,15,02,18,20.40
2014,07,15,02,19,20.40
2014,07,15,02,20,20.30
2014,07,15,02,21,20.30
2014,07,15,02,22,20.20
2014,07,15,02,23,20.10
2014,07,15,02,24,20.00
2014,07,15,02,25,19.90
2014,07,15,02,26,19.80
2014,07,15,02,27,19.70
2014,07,15,02,28,19.60
2014,07,15,02,29,19.50
2014,07,15,02,30,19.40
2014,07,15,02,31,19.40
2014,07,15,02,32,19.30
2014,07,15,02,33,19.30
2014,07,15,02,34,19.30
2014,07,15,02,35,19.30
2014,07,15,02,36,19.30
2014,07,15,02,37,19.30
2014,07,15,02,38,19.30
2014,07,15,02,39,19.30
2014,07,15,02,40,19.40
2014,07,15,02,41,19.50
2014,07,15,02,42,19.60
2014,07,15,02,43,19.70
2014,07,15,02,44,19.70
2014,07,15,02,45,19.70
2014,07,15,02,46,19.80
2014,07,15,02,47,19.80
2014,07,15,02,48,19.70
2014,07,15,02,49,19.70
2014,07,15,02,50,19.60
2014,07,15,02,51,19.50
2014,07,15,02,52,19.50
2014,07,15,02,53,19.40
2014,07,15,02,54,19.40
2014,07,15,02,55,19.40
2014,07,15,02,56,19.40
2014,07,15,02,57,19.40
2014,07,15,02,58,19.30
2014,07,15,02,59,19.30
2014,07,15,03,00,19.20
2014,07,15,03,01,19.20
2014,07,15,03,02,19.10
2014,07,15,03,03,19.20
2014,07,15,03,04,19.20
2014,07,15,03,05,19.20
2014,07,15,03,06,19.20
2014,07,15,03,07,19.30
2014,07,15,03,08,19.30
2014,07,15,03,09,19.30
2014,07,15,03,10,19.20
2014,07,15,03,11,19.20
2014,07,15,03,12,19.20
2014,07,15,03,13,19.20
2014,07,15,03,14,19.20
2014,07,15,03,15,19.30
2014,07,15,03,16,19.30
2014,07,15,03,17,19.30
2014,07,15,03,18,19.30
2014,07,15,03,19,19.20
2014,07,15,03,20,19.20
2014,07,15,03,21,19.10
2014,07,15,03,22,19.10
2014,07,15,03,23,19.10
2014,07,15,03,24,19.10
2014,07,15,03,25,19.10
2014,07,15,03,26,19.20
2014,07,15,03,27,19.20
2014,07,15,03,28,19.30
2014,07,15,03,29,19.40
2014,07,15,03,30,19.50
2014,07,15,03,31,19.50
2014,07,15,03,32,19.50
2014,07,15,03,33,19.40
2014,07,15,03,34,19.40
2014,07,15,03,35,19.40
2014,07,15,03,36,19.40
2014,07,15,03,37,19.30
2014,07,15,03,38,19.30
2014,07,15,03,39,19.30
2014,07,15,03,40,19.20
2014,07,15,03,41,19.10
2014,07,15,03,42,19.00
2014,07,15,03,43,18.80
2014,07,15,03,44,18.60
2014,07,15,03,45,18.40
2014,07,15,03,46,18.30
2014,07,15,03,47,18.10
2014,07,15,03,48,18.00
2014,07,15,03,49,17.90
2014,07,15,03,50,17.80
2014,07,15,03,51,17.70
2014,07,15,03,52,17.70
2014,07,15,03,53,17.60
2014,07,15,03,54,17.50
2014,07,15,03,55,17.50
2014,07,15,03,56,17.40
2014,07,15,03,57,17.40
2014,07,15,03,58,17.30
2014,07,15,03,59,17.30
2014,07,15,04,00,17.30
2014,07,15,04,01,17.30
2014,07,15,04,02,17.30
2014,07,15,04,03,17.40
2014,07,15,04,04,17.40
2014,07,15,04,05,17.50
2014,07,15,04,06,17.50
2014,07,15,04,07,17.60
2014,07,15,04,08,17.60
2014,07,15,04,09,17.60
2014,07,15,04,10,17.60
2014,07,15,04,11,17.60
2014,07,15,04,12,17.60
2014,07,15,04,13,17.70
2014,07,15,04,14,17.60
2014,07,15,04,15,17.60
2014,07,15,04,16,17.50
2014,07,15,04,17,17.40
2014,07,15,04,18,17.40
2014,07,15,04,19,17.30
2014,07,15,04,20,17.30
2014,07,15,04,21,17.30
2014,07,15,04,22,17.30
2014,07,15,04,23,17.30
2014,07,15,04,24,17.30
2014,07,15,04,25,17.30
2014,07,15,04,26,17.30
2014,07,15,04,27,17.40
2014,07,15,04,28,17.50
2014,07,15,04,29,17.50
2014,07,15,04,30,17.60
2014,07,15,04,31,17.70
2014,07,15,04,32,17.80
2014,07,15,04,33,17.80
2014,07,15,04,34,17.90
2014,07,15,04,35,17.90
2014,07,15,04,36,18.00
2014,07,15,04,37,18.00
2014,07,15,04,38,18.10
2014,07,15,04,39,18.10
2014,07,15,04,40,18.00
2014,07,15,04,41,17.90
2014,07,15,04,42,17.80
2014,07,15,04,43,17.70
2014,07,15,04,44,17.70
2014,07,15,04,45,17.70
2014,07,15,04,46,17.70
2014,07,15,04,47,17.60
2014,07,15,04,48,17.60
2014,07,15,04,49,17.50
2014,07,15,04,50,17.50
2014,07,15,04,51,17.30
2014,07,15,04,52,17.30
2014,07,15,04,53,17.20
2014,07,15,04,54,17.10
2014,07,15,04,55,17.00
2014,07,15,04,56,16.90
2014,07,15,04,57,16.80
2014,07,15,04,58,16.80
2014,07,15,04,59,16.80
2014,07,15,05,00,16.80
2014,07,15,05,01,16.80
2014,07,15,05,02,16.70
2014,07,15,05,03,16.60
2014,07,15,05,04,16.50
2014,07,15,05,05,16.50
2014,07,15,05,06,16.40
2014,07,15,05,07,16.30
2014,07,15,05,08,16.20
2014,07,15,05,09,16.20
2014,07,15,05,10,16.20
2014,07,15,05,11,16.30
2014,07,15,05,12,16.30
2014,07,15,05,13,16.30
2014,07,15,05,14,16.20
2014,07,15,05,15,16.20
2014,07,15,05,16,16.20
2014,07,15,05,17,16.10
2014,07,15,05,18,16.00
2014,07,15,05,19,16.00
2014,07,15,05,20,15.90
2014,07,15,05,21,15.90
2014,07,15,05,22,15.90
2014,07,15,05,23,15.80
2014,07,15,05,24,15.80
2014,07,15,05,25,15.70
2014,07,15,05,26,15.70
2014,07,15,05,27,15.70
2014,07,15,05,28,15.70
2014,07,15,05,29,15.80
2014,07,15,05,30,15.80
2014,07,15,05,31,15.70
2014,07,15,05,32,15.70
2014,07,15,05,33,15.60
2014,07,15,05,34,15.60
2014,07,15,05,35,15.70
2014,07,15,05,36,15.70
2014,07,15,05,37,15.80
2014,07,15,05,38,15.80
2014,07,15,05,39,15.80
2014,07,15,05,40,15.80
2014,07,15,05,41,15.80
2014,07,15,05,42,15.80
2014,07,15,05,43,15.80
2014,07,15,05,44,15.70
2014,07,15,05,45,15.70
2014,07,15,05,46,15.70
2014,07,15,05,47,15.70
2014,07,15,05,48,15.70
2014,07,15,05,49,15.70
2014,07,15,05,50,15.70
2014,07,15,05,51,15.60
2014,07,15,05,52,15.60
2014,07,15,05,53,15.60
2014,07,15,05,54,15.60
2014,07,15,05,55,15.60
2014,07,15,05,56,15.60
2014,07,15,05,57,15.60
2014,07,15,05,58,15.60
2014,07,15,05,59,15.60
2014,07,15,06,00,15.60
2014,07,15,06,01,15.60
2014,07,15,06,02,15.60
2014,07,15,06,03,15.70
2014,07,15,06,04,15.70
2014,07,15,06,05,15.70
2014,07,15,06,06,15.70
2014,07,15,06,07,15.70
2014,07,15,06,08,15.70
2014,07,15,06,09,15.60
2014,07,15,06,10,15.60
2014,07,15,06,11,15.60
2014,07,15,06,12,15.50
2014,07,15,06,13,15.50
2014,07,15,06,14,15.40
2014,07,15,06,15,15.40
2014,07,15,06,16,15.40
2014,07,15,06,17,15.40
2014,07,15,06,18,15.40
2014,07,15,06,19,15.40
2014,07,15,06,20,15.50
2014,07,15,06,21,15.50
2014,07,15,06,22,15.60
2014,07,15,06,23,15.60
2014,07,15,06,24,15.60
2014,07,15,06,25,15.80
2014,07,15,06,26,15.80
2014,07,15,06,27,15.90
2014,07,15,06,28,15.90
2014,07,15,06,29,15.90
2014,07,15,06,30,16.00
2014,07,15,06,31,16.10
2014,07,15,06,32,16.10
2014,07,15,06,33,16.10
2014,07,15,06,34,16.20
2014,07,15,06,35,16.20
2014,07,15,06,36,16.30
2014,07,15,06,37,16.40
2014,07,15,06,38,16.50
2014,07,15,06,39,16.50
2014,07,15,06,40,16.60
2014,07,15,06,41,16.60
2014,07,15,06,42,16.60
2014,07,15,06,43,16.70
2014,07,15,06,44,16.80
2014,07,15,06,45,16.90
2014,07,15,06,46,16.90
2014,07,15,06,47,17.00
2014,07,15,06,48,17.10
2014,07,15,06,49,17.10
2014,07,15,06,50,17.10
2014,07,15,06,51,17.20
2014,07,15,06,52,17.30
2014,07,15,06,53,17.30
2014,07,15,06,54,17.40
2014,07,15,06,55,17.50
2014,07,15,06,56,17.60
2014,07,15,06,57,17.70
2014,07,15,06,58,17.80
2014,07,15,06,59,17.90
2014,07,15,07,00,18.00
2014,07,15,07,01,18.10
2014,07,15,07,02,18.20
2014,07,15,07,03,18.20
2014,07,15,07,04,18.20
2014,07,15,07,05,18.30
2014,07,15,07,06,18.50
2014,07,15,07,07,18.60
2014,07,15,07,08,18.80
2014,07,15,07,09,19.00
2014,07,15,07,10,19.30
2014,07,15,07,11,19.40
2014,07,15,07,12,19.60
2014,07,15,07,13,19.80
2014,07,15,07,14,19.90
2014,07,15,07,15,20.00
2014,07,15,07,16,20.20
2014,07,15,07,17,20.30
2014,07,15,07,18,20.30
2014,07,15,07,19,20.40
2014,07,15,07,20,20.40
2014,07,15,07,21,20.50
2014,07,15,07,22,20.50
2014,07,15,07,23,20.60
2014,07,15,07,24,20.60
2014,07,15,07,25,20.60
2014,07,15,07,26,20.70
2014,07,15,07,27,20.80
2014,07,15,07,28,20.80
2014,07,15,07,29,20.90
2014,07,15,07,30,20.90
2014,07,15,07,31,20.90
2014,07,15,07,32,20.90
2014,07,15,07,33,21.00
2014,07,15,07,34,21.00
2014,07,15,07,35,21.10
2014,07,15,07,36,21.10
2014,07,15,07,37,21.10
2014,07,15,07,38,21.10
2014,07,15,07,39,21.10
2014,07,15,07,40,21.00
2014,07,15,07,41,21.00
2014,07,15,07,42,21.00
2014,07,15,07,43,20.90
2014,07,15,07,44,21.00
2014,07,15,07,45,21.00
2014,07,15,07,46,21.00
2014,07,15,07,47,21.00
2014,07,15,07,48,21.00
2014,07,15,07,49,21.00
2014,07,15,07,50,21.00
2014,07,15,07,51,21.00
2014,07,15,07,52,21.00
2014,07,15,07,53,21.00
2014,07,15,07,54,21.00
2014,07,15,07,55,21.00
2014,07,15,07,56,21.10
2014,07,15,07,57,21.10
2014,07,15,07,58,21.10
2014,07,15,07,59,21.10
2014,07,15,08,00,21.10
2014,07,15,08,01,21.10
2014,07,15,08,02,21.10
2014,07,15,08,03,21.10
2014,07,15,08,04,21.20
2014,07,15,08,05,21.20
2014,07,15,08,06,21.20
2014,07,15,08,07,21.20
2014,07,15,08,08,21.20
2014,07,15,08,09,21.20
2014,07,15,08,10,21.20
2014,07,15,08,11,21.20
2014,07,15,08,12,21.10
2014,07,15,08,13,21.10
2014,07,15,08,14,21.00
2014,07,15,08,15,21.00
2014,07,15,08,16,20.90
2014,07,15,08,17,20.90
2014,07,15,08,18,20.80
2014,07,15,08,19,20.80
2014,07,15,08,20,20.70
2014,07,15,08,21,20.70
2014,07,15,08,22,20.60
2014,07,15,08,23,20.50
2014,07,15,08,24,20.40
2014,07,15,08,25,20.30
2014,07,15,08,26,20.20
2014,07,15,08,27,20.20
2014,07,15,08,28,20.00
2014,07,15,08,29,19.90
2014,07,15,08,30,19.80
2014,07,15,08,31,19.80
2014,07,15,08,32,19.80
2014,07,15,08,33,19.70
2014,07,15,08,34,19.70
2014,07,15,08,35,19.70
2014,07,15,08,36,19.70
2014,07,15,08,37,19.70
2014,07,15,08,38,19.70
2014,07,15,08,39,19.70
2014,07,15,08,40,19.70
2014,07,15,08,41,19.70
2014,07,15,08,42,19.80
2014,07,15,08,43,19.90
2014,07,15,08,44,19.80
2014,07,15,08,45,19.80
2014,07,15,08,46,19.70
2014,07,15,08,47,19.70
2014,07,15,08,48,19.70
2014,07,15,08,49,19.70
2014,07,15,08,50,19.70
2014,07,15,08,51,19.70
2014,07,15,08,52,19.70
2014,07,15,08,53,19.70
2014,07,15,08,54,19.80
2014,07,15,08,55,19.80
2014,07,15,08,56,19.80
2014,07,15,08,57,19.90
2014,07,15,08,58,19.90
2014,07,15,08,59,19.90
2014,07,15,09,00,19.80
2014,07,15,09,01,19.80
2014,07,15,09,02,19.80
2014,07,15,09,03,19.90
2014,07,15,09,04,19.90
2014,07,15,09,05,19.90
2014,07,15,09,06,19.90
2014,07,15,09,07,19.90
2014,07,15,09,08,19.90
2014,07,15,09,09,19.80
2014,07,15,09,10,19.80
2014,07,15,09,11,19.80
2014,07,15,09,12,19.80
2014,07,15,09,13,19.80
2014,07,15,09,14,19.70
2014,07,15,09,15,19.70
2014,07,15,09,16,19.70
2014,07,15,09,17,19.70
2014,07,15,09,18,19.80
2014,07,15,09,19,19.80
2014,07,15,09,20,19.70
2014,07,15,09,21,19.60
2014,07,15,09,22,19.60
2014,07,15,09,23,19.60
2014,07,15,09,24,19.50
2014,07,15,09,25,19.40
2014,07,15,09,26,19.40
2014,07,15,09,27,19.40
2014,07,15,09,28,19.40
2014,07,15,09,29,19.40
2014,07,15,09,30,19.40
2014,07,15,09,31,19.40
2014,07,15,09,32,19.50
2014,07,15,09,33,19.60
2014,07,15,09,34,19.60
2014,07,15,09,35,19.60
2014,07,15,09,36,19.70
2014,07,15,09,37,19.70
2014,07,15,09,38,19.70
2014,07,15,09,39,19.70
2014,07,15,09,40,19.70
2014,07,15,09,41,19.80
2014,07,15,09,42,19.80
2014,07,15,09,43,19.90
2014,07,15,09,44,19.90
2014,07,15,09,45,20.00
2014,07,15,09,46,20.10
2014,07,15,09,47,20.20
2014,07,15,09,48,20.20
2014,07,15,09,49,20.20
2014,07,15,09,50,20.30
2014,07,15,09,51,20.30
2014,07,15,09,52,20.30
2014,07,15,09,53,20.30
2014,07,15,09,54,20.30
2014,07,15,09,55,20.30
2014,07,15,09,56,20.30
2014,07,15,09,57,20.30
2014,07,15,09,58,20.20
2014,07,15,09,59,20.20
2014,07,15,10,00,20.30
2014,07,15,10,01,20.30
2014,07,15,10,02,20.30
2014,07,15,10,03,20.30
2014,07,15,10,04,20.30
2014,07,15,10,05,20.40
2014,07,15,10,06,20.40
2014,07,15,10,07,20.50
2014,07,15,10,08,20.50
2014,07,15,10,09,20.60
2014,07,15,10,10,20.60
2014,07,15,10,11,20.60
2014,07,15,10,12,20.60
2014,07,15,10,13,20.60
2014,07,15,10,14,20.60
2014,07,15,10,15,20.60
2014,07,15,10,16,20.60
2014,07,15,10,17,20.60
2014,07,15,10,18,20.60
2014,07,15,10,19,20.70
2014,07,15,10,20,20.70
2014,07,15,10,21,20.70
2014,07,15,10,22,20.80
2014,07,15,10,23,20.80
2014,07,15,10,24,20.80
2014,07,15,10,25,20.80
2014,07,15,10,26,20.80
2014,07,15,10,27,20.80
2014,07,15,10,28,20.80
2014,07,15,10,29,20.80
2014,07,15,10,30,20.70
2014,07,15,10,31,20.60
2014,07,15,10,32,20.50
2014,07,15,10,33,20.50
2014,07,15,10,34,20.50
2014,07,15,10,35,20.40
2014,07,15,10,36,20.40
2014,07,15,10,37,20.40
2014,07,15,10,38,20.40
2014,07,15,10,39,20.50
2014,07,15,10,40,20.50
2014,07,15,10,41,20.60
2014,07,15,10,42,20.70
2014,07,15,10,43,20.80
2014,07,15,10,44,20.80
2014,07,15,10,45,20.80
2014,07,15,10,46,20.80
2014,07,15,10,47,20.70
2014,07,15,10,48,20.60
2014,07,15,10,49,20.50
2014,07,15,10,50,20.40
2014,07,15,10,51,20.20
2014,07,15,10,52,20.10
2014,07,15,10,53,20.00
2014,07,15,10,54,20.00
2014,07,15,10,55,20.10
2014,07,15,10,56,20.00
2014,07,15,10,57,20.00
2014,07,15,10,58,20.10
2014,07,15,10,59,20.20
2014,07,15,11,00,20.20
2014,07,15,11,01,20.30
2014,07,15,11,02,20.40
2014,07,15,11,03,20.50
2014,07,15,11,04,20.50
2014,07,15,11,05,20.60
2014,07,15,11,06,20.60
2014,07,15,11,07,20.60
2014,07,15,11,08,20.70
2014,07,15,11,09,20.70
2014,07,15,11,10,20.80
2014,07,15,11,11,20.80
2014,07,15,11,12,20.90
2014,07,15,11,13,21.00
2014,07,15,11,14,21.00
2014,07,15,11,15,21.00
2014,07,15,11,16,21.00
2014,07,15,11,17,21.00
2014,07,15,11,18,20.90
2014,07,15,11,19,21.00
2014,07,15,11,20,21.10
2014,07,15,11,21,21.10
2014,07,15,11,22,21.10
2014,07,15,11,23,21.00
2014,07,15,11,24,20.80
2014,07,15,11,25,20.70
2014,07,15,11,26,20.70
2014,07,15,11,27,20.70
2014,07,15,11,28,20.70
2014,07,15,11,29,20.60
2014,07,15,11,30,20.60
2014,07,15,11,31,20.50
2014,07,15,11,32,20.40
2014,07,15,11,33,20.40
2014,07,15,11,34,20.40
2014,07,15,11,35,20.50
2014,07,15,11,36,20.60
2014,07,15,11,37,20.70
2014,07,15,11,38,20.70
2014,07,15,11,39,20.70
2014,07,15,11,40,20.60
2014,07,15,11,41,20.70
2014,07,15,11,42,20.70
2014,07,15,11,43,20.70
2014,07,15,11,44,20.80
2014,07,15,11,45,20.80
2014,07,15,11,46,20.70
2014,07,15,11,47,20.70
2014,07,15,11,48,20.70
2014,07,15,11,49,20.80
2014,07,15,11,50,20.80
2014,07,15,11,51,20.80
2014,07,15,11,52,20.80
2014,07,15,11,53,20.80
2014,07,15,11,54,20.90
2014,07,15,11,55,20.90
2014,07,15,11,56,21.00
2014,07,15,11,57,21.00
2014,07,15,11,58,21.00
2014,07,15,11,59,21.10
2014,07,15,12,00,21.20
2014,07,15,12,01,21.20
2014,07,15,12,02,21.30
2014,07,15,12,03,21.30
2014,07,15,12,04,21.30
2014,07,15,12,05,21.30
2014,07,15,12,06,21.30
2014,07,15,12,07,21.30
2014,07,15,12,08,21.30
2014,07,15,12,09,21.40
2014,07,15,12,10,21.40
2014,07,15,12,11,21.50
2014,07,15,12,12,21.60
2014,07,15,12,13,21.70
2014,07,15,12,14,21.80
2014,07,15,12,15,21.90
2014,07,15,12,16,21.90
2014,07,15,12,17,22.00
2014,07,15,12,18,21.90
2014,07,15,12,19,21.90
2014,07,15,12,20,22.00
2014,07,15,12,21,22.00
2014,07,15,12,22,22.00
2014,07,15,12,23,22.10
2014,07,15,12,24,22.00
2014,07,15,12,25,21.90
2014,07,15,12,26,21.90
2014,07,15,12,27,22.00
2014,07,15,12,28,22.00
2014,07,15,12,29,22.00
2014,07,15,12,30,22.10
2014,07,15,12,31,22.20
2014,07,15,12,32,22.20
2014,07,15,12,33,22.30
2014,07,15,12,34,22.40
2014,07,15,12,35,22.40
2014,07,15,12,36,22.40
2014,07,15,12,37,22.30
2014,07,15,12,38,22.30
2014,07,15,12,39,22.20
2014,07,15,12,40,22.20
2014,07,15,12,41,22.30
2014,07,15,12,42,22.30
2014,07,15,12,43,22.30
2014,07,15,12,44,22.30
2014,07,15,12,45,22.40
2014,07,15,12,46,22.50
2014,07,15,12,47,22.50
2014,07,15,12,48,22.60
2014,07,15,12,49,22.60
2014,07,15,12,50,22.60
2014,07,15,12,51,22.70
2014,07,15,12,52,22.70
2014,07,15,12,53,22.70
2014,07,15,12,54,22.70
2014,07,15,12,55,22.80
2014,07,15,12,56,22.90
2014,07,15,12,57,23.00
2014,07,15,12,58,23.10
2014,07,15,12,59,23.10
2014,07,15,13,00,23.20
2014,07,15,13,01,23.20
2014,07,15,13,02,23.20
2014,07,15,13,03,23.30
2014,07,15,13,04,23.40
2014,07,15,13,05,23.50
2014,07,15,13,06,23.50
2014,07,15,13,07,23.60
2014,07,15,13,08,23.60
2014,07,15,13,09,23.60
2014,07,15,13,10,23.70
2014,07,15,13,11,23.60
2014,07,15,13,12,23.60
2014,07,15,13,13,23.60
2014,07,15,13,14,23.60
2014,07,15,13,15,23.60
2014,07,15,13,16,23.60
2014,07,15,13,17,23.60
2014,07,15,13,18,23.50
2014,07,15,13,19,23.50
2014,07,15,13,20,23.50
2014,07,15,13,21,23.40
2014,07,15,13,22,23.40
2014,07,15,13,23,23.40
2014,07,15,13,24,23.40
2014,07,15,13,25,23.40
2014,07,15,13,26,23.30
2014,07,15,13,27,23.30
2014,07,15,13,28,23.30
2014,07,15,13,29,23.30
2014,07,15,13,30,23.20
2014,07,15,13,31,23.20
2014,07,15,13,32,23.30
2014,07,15,13,33,23.30
2014,07,15,13,34,23.30
2014,07,15,13,35,23.40
2014,07,15,13,36,23.40
2014,07,15,13,37,23.40
2014,07,15,13,38,23.40
2014,07,15,13,39,23.40
2014,07,15,13,40,23.40
2014,07,15,13,41,23.40
2014,07,15,13,42,23.40
2014,07,15,13,43,23.40
2014,07,15,13,44,23.40
2014,07,15,13,45,23.30
2014,07,15,13,46,23.30
2014,07,15,13,47,23.30
2014,07,15,13,48,23.40
2014,07,15,13,49,23.40
2014,07,15,13,50,23.50
2014,07,15,13,51,23.50
2014,07,15,13,52,23.50
2014,07,15,13,53,23.50
2014,07,15,13,54,23.50
2014,07,15,13,55,23.50
2014,07,15,13,56,23.50
2014,07,15,13,57,23.50
2014,07,15,13,58,23.50
2014,07,15,13,59,23.60
2014,07,15,14,00,23.70
2014,07,15,14,01,23.80
2014,07,15,14,02,23.80
2014,07,15,14,03,23.90
2014,07,15,14,04,23.90
2014,07,15,14,05,24.00
2014,07,15,14,06,24.00
2014,07,15,14,07,24.10
2014,07,15,14,08,24.20
2014,07,15,14,09,24.30
2014,07,15,14,10,24.30
2014,07,15,14,11,24.40
2014,07,15,14,12,24.50
2014,07,15,14,13,24.60
2014,07,15,14,14,24.70
2014,07,15,14,15,24.70
2014,07,15,14,16,24.70
2014,07,15,14,17,24.70
2014,07,15,14,18,24.70
2014,07,15,14,19,24.80
2014,07,15,14,20,24.80
2014,07,15,14,21,24.80
2014,07,15,14,22,24.70
2014,07,15,14,23,24.70
2014,07,15,14,24,24.70
2014,07,15,14,25,24.70
2014,07,15,14,26,24.80
2014,07,15,14,27,24.80
2014,07,15,14,28,24.80
2014,07,15,14,29,24.90
2014,07,15,14,30,24.90
2014,07,15,14,31,24.90
2014,07,15,14,32,24.90
2014,07,15,14,33,24.90
2014,07,15,14,34,24.90
2014,07,15,14,35,24.90
2014,07,15,14,36,24.90
2014,07,15,14,37,24.90
2014,07,15,14,38,25.00
2014,07,15,14,39,25.00
2014,07,15,14,40,25.00
2014,07,15,14,41,24.90
2014,07,15,14,42,24.90
2014,07,15,14,43,24.90
2014,07,15,14,44,24.90
2014,07,15,14,45,24.90
2014,07,15,14,46,24.90
2014,07,15,14,47,24.90
2014,07,15,14,48,24.90
2014,07,15,14,49,24.90
2014,07,15,14,50,24.90
2014,07,15,14,51,24.90
2014,07,15,14,52,24.90
2014,07,15,14,53,24.90
2014,07,15,14,54,24.90
2014,07,15,14,55,24.80
2014,07,15,14,56,24.70
2014,07,15,14,57,24.50
2014,07,15,14,58,24.40
2014,07,15,14,59,24.40
2014,07,15,15,00,24.30
2014,07,15,15,01,24.30
2014,07,15,15,02,24.30
2014,07,15,15,03,24.40
2014,07,15,15,04,24.40
2014,07,15,15,05,24.30
2014,07,15,15,06,24.20
2014,07,15,15,07,24.10
2014,07,15,15,08,24.10
2014,07,15,15,09,24.00
2014,07,15,15,10,23.90
2014,07,15,15,11,23.90
2014,07,15,15,12,23.90
2014,07,15,15,13,23.80
2014,07,15,15,14,23.80
2014,07,15,15,15,23.70
2014,07,15,15,16,23.60
2014,07,15,15,17,23.60
2014,07,15,15,18,23.70
2014,07,15,15,19,23.80
2014,07,15,15,20,23.80
2014,07,15,15,21,23.70
2014,07,15,15,22,23.70
2014,07,15,15,23,23.70
2014,07,15,15,24,23.70
2014,07,15,15,25,23.80
2014,07,15,15,26,23.90
2014,07,15,15,27,24.00
2014,07,15,15,28,24.00
2014,07,15,15,29,24.10
2014,07,15,15,30,24.20
2014,07,15,15,31,24.30
2014,07,15,15,32,24.30
2014,07,15,15,33,24.40
2014,07,15,15,34,24.40
2014,07,15,15,35,24.40
2014,07,15,15,36,24.50
2014,07,15,15,37,24.50
2014,07,15,15,38,24.60
2014,07,15,15,39,24.60
2014,07,15,15,40,24.60
2014,07,15,15,41,24.60
2014,07,15,15,42,24.60
2014,07,15,15,43,24.70
2014,07,15,15,44,24.70
2014,07,15,15,45,24.80
2014,07,15,15,46,24.90
2014,07,15,15,47,24.90
2014,07,15,15,48,24.90
2014,07,15,15,49,25.00
2014,07,15,15,50,25.00
2014,07,15,15,51,25.10
2014,07,15,15,52,25.20
2014,07,15,15,53,25.20
2014,07,15,15,54,25.30
2014,07,15,15,55,25.20
2014,07,15,15,56,25.30
2014,07,15,15,57,25.20
2014,07,15,15,58,25.10
2014,07,15,15,59,25.10
2014,07,15,16,00,25.10
2014,07,15,16,01,25.10
2014,07,15,16,02,25.00
2014,07,15,16,03,25.10
2014,07,15,16,04,25.20
2014,07,15,16,05,25.20
2014,07,15,16,06,25.20
2014,07,15,16,07,25.20
2014,07,15,16,08,25.10
2014,07,15,16,09,25.10
2014,07,15,16,10,25.10
2014,07,15,16,11,25.10
2014,07,15,16,12,25.10
2014,07,15,16,13,25.10
2014,07,15,16,14,25.10
2014,07,15,16,15,25.10
2014,07,15,16,16,25.20
2014,07,15,16,17,25.20
2014,07,15,16,18,25.30
2014,07,15,16,19,25.30
2014,07,15,16,20,25.40
2014,07,15,16,21,25.50
2014,07,15,16,22,25.50
2014,07,15,16,23,25.60
2014,07,15,16,24,25.60
2014,07,15,16,25,25.70
2014,07,15,16,26,25.70
2014,07,15,16,27,25.80
2014,07,15,16,28,25.80
2014,07,15,16,29,25.90
2014,07,15,16,30,25.90
2014,07,15,16,31,25.90
2014,07,15,16,32,25.90
2014,07,15,16,33,25.90
2014,07,15,16,34,25.90
2014,07,15,16,35,25.90
2014,07,15,16,36,25.90
2014,07,15,16,37,25.90
2014,07,15,16,38,25.90
2014,07,15,16,39,25.90
2014,07,15,16,40,25.90
2014,07,15,16,41,25.80
2014,07,15,16,42,25.80
2014,07,15,16,43,25.80
2014,07,15,16,44,25.80
2014,07,15,16,45,25.80
2014,07,15,16,46,25.90
2014,07,15,16,47,25.90
2014,07,15,16,48,25.90
2014,07,15,16,49,25.90
2014,07,15,16,50,26.00
2014,07,15,16,51,26.00
2014,07,15,16,52,26.10
2014,07,15,16,53,26.20
2014,07,15,16,54,26.20
2014,07,15,16,55,26.30
2014,07,15,16,56,26.30
2014,07,15,16,57,26.30
2014,07,15,16,58,26.30
2014,07,15,16,59,26.40
2014,07,15,17,00,26.40
2014,07,15,17,01,26.40
2014,07,15,17,02,26.50
2014,07,15,17,03,26.60
2014,07,15,17,04,26.70
2014,07,15,17,05,26.70
2014,07,15,17,06,26.70
2014,07,15,17,07,26.80
2014,07,15,17,08,26.80
2014,07,15,17,09,26.80
2014,07,15,17,10,26.80
2014,07,15,17,11,26.90
2014,07,15,17,12,26.90
2014,07,15,17,13,26.90
2014,07,15,17,14,27.00
2014,07,15,17,15,26.90
2014,07,15,17,16,26.90
2014,07,15,17,17,26.90
2014,07,15,17,18,26.90
2014,07,15,17,19,26.80